EHI
5 6 6 4 3 1 0 0 0 0 1 1 1 0 1 2 3 3 3 3 3 3 2 2 2 1 0 1 2 2 3 4 5 4 2 2 2 4 4 2 1 2 3
5 6 5 4 3 2 1 0 0 0 0 0 0 0 1 2 3 4 4 4 3 3 1 1 1 0 0 1 2 1 1 2 3 3 2 2 3 6 6 4 3 3 3
4 4 5 4 3 3 2 1 0 0 0 0 0 0 1 2 3 4 5 4 3 2 1 0 0 0 0 1 1 0 0 0 1 1 2 2 3 6 7 6 4 3 3
2 3 3 3 3 3 3 2 1 0 0 0 0 0 1 3 3 4 5 3 1 1 0 0 0 0 0 0 0 0 0 0 0 1 1 1 2 4 6 6 4 2 2
2 3 4 4 3 3 3 3 1 0 0 0 0 0 1 3 4 3 4 3 1 0 0 0 0 0 0 0 0 0 0 0 0 1 0 0 1 4 6 6 4 1 1
2 3 5 4 3 3 3 2 1 0 0 0 0 0 1 3 3 3 4 3 1 0 0 0 0 0 0 0 0 0 0 0 0 0 0 0 2 6 8 7 5 2 0
3 3 4 4 3 2 2 1 1 0 0 0 0 0 1 2 3 4 4 3 2 1 1 0 0 0 0 1 1 1 1 1 1 1 1 1 4 7 9 8 6 3 1
5 2 2 3 2 1 1 0 0 0 0 0 0 0 1 2 3 3 4 3 2 2 1 1 1 1 1 2 2 3 5 5 4 3 4 3 5 9 9 8 7 4 2
4 1 1 2 1 0 0 0 0 0 0 0 0 1 2 3 3 3 3 3 3 3 3 2 3 3 3 4 4 5 8 9 6 4 4 5 7 10 9 8 7 4 1
1 1 2 3 1 1 1 1 1 1 1 1 0 1 2 3 3 3 3 3 4 4 4 4 5 6 7 8 9 9 10 10 6 3 4 7 10 10 9 8 6 4 2
0 1 3 4 2 2 2 3 2 2 3 2 2 1 1 1 2 3 4 5 5 4 4 5 7 8 9 10 12 13 11 8 5 4 6 10 12 11 9 8 6 3 2
0 1 3 4 3 3 4 4 2 4 6 5 5 5 2 1 1 2 5 6 5 4 5 7 8 8 9 9 11 12 9 7 5 5 8 13 14 12 9 8 6 3 2
0 0 1 3 4 4 4 4 3 5 8 9 8 8 6 3 2 2 5 7 6 6 8 10 9 8 7 7 8 8 7 7 6 5 9 14 15 11 8 7 6 4 3
0 0 1 3 4 5 5 5 4 5 7 9 9 9 8 6 3 2 5 9 9 9 14 15 12 9 7 7 6 5 5 6 7 6 7 13 15 11 9 7 5 4 4
0 1 2 4 7 7 7 7 5 5 6 8 9 9 8 6 4 3 7 11 10 11 16 17 15 12 10 8 7 6 6 6 7 6 7 13 17 16 12 9 8 6 5
1 2 5 8 11 11 8 6 5 6 8 9 10 10 8 6 6 6 9 12 11 11 14 14 15 15 14 11 10 10 10 10 10 9 10 13 19 21 18 15 13 12 11
4 5 8 11 14 15 10 7 6 7 10 11 12 11 9 8 9 10 11 12 11 11 13 13 13 13 12 11 11 12 13 14 14 13 13 15 18 21 21 20 19 19 17
8 9 11 13 16 18 15 11 10 10 13 15 15 14 11 9 9 10 10 9 9 11 14 13 10 8 8 8 10 12 13 15 16 14 15 18 19 18 18 21 23 22 21
13 13 13 16 20 21 19 16 14 14 15 16 16 15 12 9 7 8 8 8 8 10 11 9 7 6 6 7 8 9 11 12 13 14 16 18 18 18 18 21 23 23 21
19 19 18 19 22 22 20 18 16 14 14 14 14 13 13 10 8 8 10 9 9 9 8 7 7 8 9 8 7 7 9 11 13 16 17 16 16 19 22 22 22 20 19
27 26 23 21 21 20 18 18 15 12 10 10 11 12 12 10 9 11 11 10 10 9 9 9 8 8 8 7 7 7 10 14 17 19 20 18 16 17 21 23 24 24 22
37 33 27 24 22 19 17 16 14 11 9 9 12 13 11 8 9 10 11 10 9 10 11 10 9 8 6 5 6 7 10 14 16 18 20 20 17 17 19 22 29 31 31
40 36 32 32 30 22 16 13 11 11 10 9 14 17 14 10 9 11 13 12 10 10 10 10 9 8 7 6 6 9 11 12 13 14 15 15 19 21 20 21 26 32 33
36 38 41 44 39 27 17 12 10 11 10 9 14 19 18 14 12 14 19 20 17 13 10 9 9 10 9 8 9 12 14 15 16 15 12 12 18 22 21 19 22 27 30
31 37 46 51 47 34 21 14 12 12 10 9 12 18 18 17 18 21 24 27 24 19 14 11 11 11 9 9 12 14 15 18 21 19 13 12 16 19 19 19 21 25 28
27 34 44 52 50 39 26 16 14 14 12 9 11 16 17 19 23 25 26 29 27 22 18 14 13 11 9 10 12 14 14 18 22 21 15 13 15 17 18 19 23 26 28
Wind_Speed
11 11 11 12 12 12 12 12 12 13 13 13 13 13 13 13 13 13 13 13 12 12 12 12 12 12 12 12 12 11 10 9 9 8 8 8 8 7 6 7 8 8 10
13 12 12 12 12 12 12 12 12 12 12 13 13 13 13 13 13 13 12 12 12 12 11 11 12 11 11 11 10 10 8 8 7 7 8 7 7 6 6 6 8 7 10
14 13 12 11 12 12 11 11 11 12 12 13 13 12 12 12 13 13 12 12 12 12 11 11 11 11 10 10 9 8 7 7 6 7 6 5 5 6 8 9 10 10 9
13 12 12 12 12 11 11 12 12 12 13 13 12 12 12 12 12 12 12 11 11 11 11 10 10 10 9 9 8 8 7 6 6 6 3 3 4 7 8 9 9 9 8
14 13 13 12 12 12 11 12 12 12 12 12 12 12 12 12 12 12 11 10 10 10 10 9 9 9 9 8 8 7 5 5 5 5 2 3 4 8 9 9 8 8 7
14 14 13 13 12 12 12 12 12 11 12 12 12 12 12 12 12 12 11 10 10 9 9 8 8 8 8 7 6 5 4 4 5 3 3 4 5 8 9 8 8 7 6
14 13 13 13 13 13 12 12 11 11 11 11 12 12 11 12 12 12 11 10 9 9 8 7 7 7 7 6 5 4 4 5 5 2 4 4 6 9 9 8 7 7 6
14 14 12 14 13 13 12 11 12 11 11 11 11 11 11 11 11 11 11 9 8 8 7 7 7 6 6 6 5 4 4 6 4 3 5 5 8 9 8 8 7 7 6
13 13 11 11 11 12 12 11 11 11 10 10 11 11 11 11 11 11 10 9 8 7 6 6 6 6 6 6 6 5 6 6 5 2 5 5 8 9 8 8 7 7 6
10 11 11 10 10 9 10 11 11 11 10 10 10 10 10 10 10 11 10 8 7 7 6 6 6 7 7 7 7 7 7 6 4 2 3 6 10 10 9 8 7 7 7
9 8 9 10 9 9 9 11 11 11 10 9 8 9 8 6 7 7 8 9 8 7 7 7 7 7 7 8 8 8 6 4 2 3 3 8 10 10 9 8 7 7 7
8 7 7 7 7 7 7 8 6 7 7 5 4 5 4 3 3 6 9 9 8 7 7 7 6 7 7 5 7 7 4 5 2 3 5 10 10 10 9 8 7 7 7
7 7 8 6 4 4 5 5 3 3 5 5 5 5 3 3 3 4 4 5 5 6 5 5 5 4 4 3 3 4 5 4 2 3 6 11 10 9 9 9 8 8 7
7 8 7 7 5 3 3 3 4 3 3 4 4 4 3 2 2 2 2 3 3 3 3 3 3 3 3 3 3 3 3 2 2 3 6 12 12 11 10 9 9 8 8
7 8 8 6 5 4 3 1 3 2 3 3 3 2 2 2 2 2 1 1 2 3 3 3 2 2 3 2 3 3 3 2 1 3 4 11 12 11 11 10 9 9 9
7 7 7 7 6 4 3 2 3 3 2 3 2 2 2 2 2 1 1 1 1 2 2 2 2 3 2 2 3 2 3 3 2 3 5 7 11 11 10 10 10 10 10
8 8 7 7 7 5 4 2 3 3 3 3 2 2 1 2 2 2 1 1 1 1 1 1 2 2 2 2 3 3 3 3 2 2 3 4 6 10 10 11 11 10 10
8 7 6 7 8 6 3 2 2 2 3 3 2 2 2 2 2 1 1 1 1 1 1 1 1 1 1 1 2 2 2 2 3 3 4 4 4 5 9 13 11 11 11
7 7 5 6 7 6 5 3 2 2 2 2 2 2 2 2 2 1 1 1 1 1 1 1 1 1 1 1 2 3 3 3 3 4 3 4 4 4 4 9 12 12 12
8 7 6 6 6 5 4 3 2 2 2 2 2 2 2 2 3 1 2 1 1 1 1 0 0 1 1 2 4 3 2 3 2 3 3 3 3 4 4 5 6 8 12
9 8 6 6 5 3 2 2 2 2 2 2 2 2 2 2 2 2 1 1 1 1 1 1 1 2 1 1 2 2 3 3 3 2 2 2 2 2 3 4 4 4 5
9 8 7 6 6 4 3 2 1 1 2 2 2 2 1 1 1 2 2 1 1 1 1 1 1 1 2 1 1 2 2 2 2 3 2 2 2 2 3 4 3 3 3
10 9 8 7 6 5 4 3 2 2 1 1 2 2 1 1 1 1 2 1 1 1 1 2 1 1 2 2 2 1 1 1 2 1 1 1 1 1 2 2 3 4 4
10 10 8 7 6 5 4 3 3 2 2 2 2 2 2 1 2 1 1 1 1 1 1 2 1 2 2 2 1 2 2 1 1 2 2 2 2 2 2 2 2 3 3
11 10 9 8 6 5 4 3 2 1 1 1 1 2 2 2 2 1 2 1 1 1 1 1 1 2 2 2 2 2 2 1 3 2 3 2 2 2 2 2 2 2 3
10 10 11 9 7 6 5 4 3 1 1 0 0 1 2 2 2 2 2 1 1 1 1 1 1 2 2 3 2 2 2 2 2 2 3 3 2 2 2 2 1 2 2
Wind_Direction
101 104 102 100 100 102 102 101 101 103 107 110 111 114 115 114 113 112 112 112 113 113 113 114 113 110 107 106 105 105 106 106 104 105 104 103 102 104 109 118 115 105 108
105 107 104 102 103 104 104 103 103 105 107 110 112 114 116 116 115 115 113 112 113 113 112 112 112 111 110 110 111 113 117 118 118 124 121 109 102 103 103 108 102 112 115
106 112 106 102 106 105 105 106 106 106 108 110 112 114 116 117 117 116 115 114 113 113 113 114 113 112 113 114 118 122 127 133 142 151 151 129 115 109 108 106 110 118 117
108 108 105 107 106 104 104 107 107 107 108 110 111 112 114 117 118 118 117 116 117 117 115 116 117 117 120 124 128 134 144 160 171 184 194 143 122 120 119 118 120 120 121
105 105 108 110 107 105 106 108 107 106 110 111 113 114 116 119 121 120 123 121 119 118 118 118 120 123 127 134 142 151 168 186 201 222 170 123 114 131 133 131 129 128 127
110 110 114 114 111 108 110 111 110 110 112 113 115 118 120 121 122 122 123 124 123 121 122 122 122 127 132 143 152 168 188 213 234 223 137 128 127 137 140 141 139 137 135
108 112 118 117 115 113 112 112 113 114 113 115 119 123 124 127 127 126 123 123 123 122 125 129 130 134 144 149 162 183 210 239 241 191 138 124 130 142 146 147 142 144 145
114 116 119 120 121 118 116 117 118 119 119 119 122 125 129 132 134 131 127 127 124 125 131 134 136 146 156 164 174 197 234 262 246 163 137 130 143 147 151 153 151 153 156
114 121 126 129 127 125 124 125 125 125 126 126 128 130 132 136 138 136 134 136 137 139 142 146 157 163 168 179 190 207 238 263 280 192 142 135 148 151 153 156 160 163 166
112 121 129 133 135 138 135 137 137 136 135 136 138 139 139 142 146 146 146 149 152 156 159 165 172 176 184 197 207 220 242 270 257 166 123 140 153 156 162 165 167 173 176
109 117 127 134 143 145 142 142 148 146 145 148 150 154 158 162 160 159 151 157 163 165 167 172 180 191 200 209 218 226 244 251 207 128 123 147 158 163 171 175 177 180 185
117 120 121 126 140 146 139 142 157 151 150 156 151 160 167 164 153 144 146 160 167 169 171 180 191 198 207 206 211 219 237 235 209 139 139 157 164 169 176 182 188 192 198
123 120 116 111 116 123 124 145 147 148 148 154 153 161 162 155 142 140 151 159 170 175 184 177 192 209 212 215 206 208 225 223 182 136 150 163 166 177 183 189 195 200 205
128 120 111 115 105 87 100 130 143 138 137 143 148 164 158 148 143 150 152 160 168 178 180 185 200 211 223 225 227 227 240 236 160 140 159 166 174 183 188 192 197 204 209
131 126 123 125 117 117 112 113 113 104 121 125 124 144 138 136 135 140 142 154 176 170 179 202 191 202 224 230 237 232 254 264 183 153 152 174 182 187 192 197 202 207 211
136 125 128 127 117 117 122 115 113 115 114 102 104 105 134 123 122 133 157 186 192 177 186 201 196 199 220 231 245 244 244 255 232 167 159 179 187 192 198 202 206 209 212
135 132 133 134 130 131 123 131 121 121 113 103 107 117 127 131 147 161 157 182 187 165 145 210 235 222 223 232 236 242 232 238 236 192 172 176 185 197 205 210 210 210 212
132 134 141 137 135 133 124 110 96 113 117 122 136 143 139 131 147 169 155 176 195 175 178 208 218 237 253 251 246 246 240 231 230 212 204 193 188 192 203 212 213 214 216
125 127 132 126 132 137 140 141 137 120 109 116 129 136 140 155 160 180 149 121 234 212 202 240 150 267 271 273 269 243 237 235 226 228 214 204 199 191 191 201 208 215 218
130 129 132 126 128 139 140 142 146 140 135 128 132 142 154 165 162 176 155 153 237 233 217 47 226 258 268 269 282 285 255 242 228 227 225 217 204 193 197 204 198 214 218
135 136 137 139 130 133 139 151 155 158 159 148 157 138 138 151 152 161 138 160 214 237 219 232 215 256 259 260 279 288 271 252 232 217 219 224 222 211 197 196 190 196 205
141 141 143 148 144 155 145 137 146 137 153 152 129 130 149 151 168 181 137 188 183 215 214 262 219 281 288 290 282 293 298 286 286 235 206 211 215 203 218 213 198 201 203
152 155 153 151 149 161 153 157 165 164 165 137 137 141 167 170 199 220 154 194 215 229 201 230 230 233 258 269 253 262 301 313 308 269 256 241 202 205 223 223 209 198 203
156 152 147 147 148 155 166 180 186 168 160 163 158 145 164 190 215 195 158 173 219 243 212 236 199 255 256 267 271 256 252 266 283 312 286 259 225 229 228 254 237 200 191
160 155 151 149 150 154 173 177 196 177 174 157 148 151 182 199 215 195 170 180 187 233 232 287 267 259 276 283 292 291 278 258 245 253 282 289 280 256 229 230 228 198 188
163 158 155 152 155 164 179 177 179 190 204 160 207 199 215 193 188 190 167 168 179 219 224 260 275 274 279 293 296 292 294 290 284 274 286 295 291 281 258 228 211 210 201